Vamdrup, Denmark

9:06 PM CEST on October 18, 2019 (GMT +0200)
Vamdrup

Weather History for EKVD - September, 2019

Change the Weather History Date:

Saturday, September 21, 2019

  Actual Average Record
Temperature  
Mean Temperature 58 °F -  
Max Temperature 69 °F 55 °F 71 °F (2006)
Min Temperature 48 °F 46 °F 44 °F (2008)
Degree Days  
Heating Degree Days 6    
Growing Degree Days 8 (Base 50)    
Moisture  
Dew Point 53 °F    
Average Humidity 86    
Maximum Humidity 100    
Minimum Humidity 48    
Precipitation  
Precipitation 0.00 in - - ()
Sea Level Pressure  
Sea Level Pressure 30.14 in    
Wind  
Wind Speed 6 mph ()    
Max Wind Speed 10 mph    
Max Gust Speed -    
Visibility 6.2 miles    
Events      
Averages and records for this station are not official NWS values.
T = Trace of Precipitation, MM = Missing Value Source: Averaged Metar Reports

Daily Weather History Graph

Daily Weather History Graph

Search for Another Location

Airport or City:

Astronomy

Sep. 21, 2019 Rise Set
Actual Time 7:05 AM CEST 7:25 PM CEST
Civil Twilight 6:28 AM CEST 8:01 PM CEST
Nautical Twilight 5:44 AM CEST 8:45 PM CEST
Astronomical Twilight 4:58 AM CEST 9:31 PM CEST
Moon 10:40 PM CEST (9/21) 3:01 PM CEST (9/21)
Length of Visible Light 13h 33m
Length of Day
12h 19m
Waning Gibbous, 57% of the Moon is Illuminated
Sep 21
Waning Gibbous
Sep 22
Last Quarter
Sep 28
New
Oct 5
First Quarter
Oct 13
Full

Hourly Weather History & Observations

Time (CEST) Temp. Dew Point Humidity Pressure Visibility Wind Dir Wind Speed Gust Speed Precip Events Conditions
12:20 AM 51.8 °F 50.0 °F 94% 30.21 in - West 5.8 mph - N/A   Unknown
12:50 AM 51.8 °F 50.0 °F 94% 30.21 in - West 4.6 mph - N/A   Unknown
1:20 AM 51.8 °F 50.0 °F 94% 30.18 in - West 9.2 mph - N/A   Unknown
1:50 AM 51.8 °F 50.0 °F 94% 30.18 in - West 9.2 mph - N/A   Unknown
2:00 AM 52 °F 50 °F 91% 30.21 in - West 8.1 mph - -  
2:20 AM 51.8 °F 50.0 °F 94% 30.18 in - West 8.1 mph - N/A   Unknown
2:50 AM 51.8 °F 50.0 °F 94% 30.18 in - West 8.1 mph - N/A   Unknown
3:20 AM 51.8 °F 51.8 °F 100% 30.18 in - WSW 8.1 mph - N/A   Unknown
3:50 AM 51.8 °F 51.8 °F 100% 30.18 in - West 9.2 mph - N/A   Unknown
4:20 AM 53.6 °F 51.8 °F 94% 30.18 in - West 8.1 mph - N/A   Unknown
4:50 AM 51.8 °F 51.8 °F 100% 30.18 in - West 6.9 mph - N/A   Unknown
5:20 AM 53.6 °F 51.8 °F 94% 30.18 in - West 6.9 mph - N/A   Unknown
5:50 AM 53.6 °F 53.6 °F 100% 30.18 in - WNW 8.1 mph - N/A   Unknown
6:20 AM 53.6 °F 53.6 °F 100% 30.18 in - WNW 8.1 mph - N/A   Unknown
7:20 AM 53.6 °F 51.8 °F 94% 30.18 in - West 6.9 mph - N/A   Unknown
7:50 AM 53.6 °F 51.8 °F 94% 30.18 in - West 9.2 mph - N/A   Unknown
8:20 AM 53.6 °F 51.8 °F 94% 30.18 in - West 10.4 mph - N/A   Unknown
8:40 AM 53.6 °F 51.8 °F 94% 30.18 in 6.2 mi West 10.4 mph - N/A   Scattered Clouds
8:41 AM 53.6 °F 51.8 °F 94% 30.18 in 6.2 mi WNW 10.4 mph - N/A   Mostly Cloudy
8:50 AM 53.6 °F 51.8 °F 94% 30.18 in 6.2 mi WNW 10.4 mph - N/A   Scattered Clouds
9:20 AM 55.4 °F 51.8 °F 88% 30.18 in 6.2 mi West 10.4 mph - N/A   Scattered Clouds
9:50 AM 55.4 °F 53.6 °F 94% 30.18 in 6.2 mi WNW 10.4 mph - N/A   Scattered Clouds
10:50 AM 59.0 °F 53.6 °F 82% 30.18 in 6.2 mi West 10.4 mph - N/A   Scattered Clouds
11:50 AM 60.8 °F 53.6 °F 77% 30.18 in - West 10.4 mph - N/A   Clear
12:50 PM 64.4 °F 55.4 °F 73% 30.15 in - West 9.2 mph - N/A   Clear
1:50 PM 66.2 °F 55.4 °F 68% 30.15 in - West 9.2 mph - N/A   Clear
2:00 PM 66 °F 55 °F 59% 30.17 in - WNW 8.1 mph - -  
2:50 PM 66.2 °F 55.4 °F 68% 30.12 in - WNW 6.9 mph - N/A   Clear
3:50 PM 68.0 °F 55.4 °F 64% 30.12 in - WNW 4.6 mph - N/A   Clear
4:20 PM 68.0 °F 57.2 °F 68% 30.12 in - NNW 4.6 mph - N/A   Unknown
4:50 PM 68.0 °F 55.4 °F 64% 30.09 in - NNW 4.6 mph - N/A   Unknown
5:00 PM 69 °F 54 °F 48% 30.11 in - NW 4.6 mph - -  
5:20 PM 68.0 °F 55.4 °F 64% 30.09 in - WNW 4.6 mph - N/A   Unknown
5:50 PM 68.0 °F 55.4 °F 64% 30.09 in - NW 3.5 mph - N/A   Unknown
6:20 PM 68.0 °F 55.4 °F 64% 30.09 in - WNW 4.6 mph - N/A   Unknown
6:50 PM 66.2 °F 55.4 °F 68% 30.09 in - West 2.3 mph - N/A   Unknown
7:20 PM 60.8 °F 57.2 °F 88% 30.09 in - West 5.8 mph - N/A   Unknown
7:50 PM 59.0 °F 55.4 °F 88% 30.09 in - WSW 4.6 mph - N/A   Unknown
8:00 PM 58 °F 54 °F 82% 30.10 in - WSW 4.6 mph - -  
8:20 PM 57.2 °F 53.6 °F 88% 30.09 in - WSW 4.6 mph - N/A   Unknown
8:50 PM 57.2 °F 55.4 °F 94% 30.09 in - WSW 2.3 mph - N/A   Unknown
9:20 PM 55.4 °F 53.6 °F 94% 30.09 in - SW 2.3 mph - N/A   Unknown
9:50 PM 53.6 °F 51.8 °F 94% 30.06 in - Calm Calm - N/A   Unknown
10:20 PM 51.8 °F 50.0 °F 94% 30.06 in - SSW 1.2 mph - N/A   Unknown
10:50 PM 50.0 °F 48.2 °F 94% 30.06 in - East 1.2 mph - N/A   Unknown
11:20 PM 48.2 °F 48.2 °F 100% 30.06 in - ENE 2.3 mph - N/A   Unknown
11:50 PM 48.2 °F 46.4 °F 93% 30.04 in - ENE 1.2 mph - N/A   Unknown